Regional Weather Roundup
Issued by NWS Charleston, SC

Home | Current Version | Previous Version | Text Only | Print | Product List | Glossary On
Versions: 1 2 3 4 5 6 7 8 9 10 11 12 13 14 15 16 17 18 19 20 21 22 23 24 25 26 27 28 29 30 31 32 33 34 35 36 37 38 39 40 41 42 43 44 45 46 47 48 49 50
000
ASUS42 KCHS 020226
RWRCHS

REGIONAL WEATHER ROUNDUP
NATIONAL WEATHER SERVICE CHARLESTON SC
900 PM EST SUN FEB 01 2015

NOTE: "FAIR" INDICATES FEW OR NO CLOUDS BELOW 12,000 FEET WITH NO
SIGNIFICANT WEATHER AND/OR OBSTRUCTIONS TO VISIBILITY.

NOT ALL STATIONS ARE QUALITY CONTROLLED BY THE NATIONAL
WEATHER SERVICE. USE DATA WITH CAUTION...ESPECIALLY
DEWPOINT OBSERVATIONS.

SCZ027-030-031-034>040-042>050-020300-
...SOUTHEAST SOUTH CAROLINA...

CITY           SKY/WX    TMP DP  RH WIND       PRES   REMARKS
N CHARLESTON   CLOUDY    60  54  80 S6        30.02F
WATERFRONT PRK NOT AVBL
MOUNT PLEASANT FAIR      61  57  88 S10       30.02F
PINOPOLIS        N/A     63  52  67 VRB3      29.94F
MONCKS CORNER  CLOUDY    61  52  72 S3        30.00F
SUMMERVILLE    CLOUDY    61  54  77 S5        30.02S
BEAUFORT MCAS  MOCLDY    60  52  74 S9        30.02F
BEAUFORT ARPT  CLOUDY    61  54  77 S9        30.01F
HILTON HEAD IS MOCLDY    61  55  82 S7G16     30.04S
WALTERBORO     LGT RAIN  61  48  63 S12       30.00F
ALLENDALE      CLOUDY    61  54  77 S8        29.96F

...SOUTHERN MIDLANDS AND PEE DEE...

CITY           SKY/WX    TMP DP  RH WIND       PRES   REMARKS
GEORGETOWN     NOT AVBL
KINGSTREE      NOT AVBL
ORANGEBURG     LGT RAIN  60  49  66 S14G23    29.97F
BARNWELL       FAIR      61  52  72 S7        29.97F
AIKEN          LGT RAIN  57  50  77 S12       29.96F
MANNING        MOCLDY    61  12  15 S7        29.99F
COLUMBIA       CLOUDY    61  48  62 S13       29.94F
SUMTER         CLOUDY    60  49  66 S12G21    29.95F
FLORENCE       CLOUDY    59  47  64 S12       29.98F
MYRTLE BEACH   NOT AVBL
N MYRTLE BEACH CLOUDY    57  51  80 S12       30.02F

$$

GAZ063-065-086>088-099>101-113>116-118-119-134>141-150-020300-
...SOUTHEAST GEORGIA...

CITY           SKY/WX    TMP DP  RH WIND       PRES   REMARKS
SAVANNAH ARPT  CLOUDY    60  51  72 S13       30.02F
HUNTER AAF     CLOUDY    61  54  76 S13       30.00F
FORT STEWART   LGT RAIN  63  52  67 S7        29.98F
STATESBORO     CLOUDY    60  53  77 S8        29.97S
SYLVANIA       CLOUDY    61  54  76 S7        29.98F
CLAXTON        FAIR      61  54  77 SE5       29.97F

...CSRA...CENTRAL AND FAR SOUTHEAST GEORGIA...

CITY           SKY/WX    TMP DP  RH WIND       PRES   REMARKS
THOMSON        CLOUDY    59  55  86 S7        29.96F
AUGUSTA-BUSH   LGT RAIN  60  48  64 S9        29.95F
AUGUSTA-DANIEL LGT RAIN  62  48  60 S9        29.95S
SWAINSBORO     RAIN      61  45  55 S6        29.97F
VIDALIA        CLOUDY    61  52  72 S5        29.98S
EASTMAN        DRIZZLE   58  56  92 S5        29.98F
HAZLEHURST     LGT RAIN  61  55  81 S5        29.96F
ALMA           LGT RAIN  61  52  72 S7        29.98F
WAYCROSS       CLOUDY    68  52  57 S8        29.99F
JESUP          FAIR      64  55  72 S6        29.99F
BAXLEY         CLOUDY    61  52  72 S6        29.97F
BRUNSWICK      MOCLDY    63  50  63 S12       30.03F
SAINT SIMONS   MOCLDY    59  53  80 S8        30.04F

$$

SCZ027-028-034-036>038-045-046-048>050-GAZ119-141-020300-
...LAKE AND SUPPLEMENTAL COASTAL OBSERVATIONS...

STATION/POSITION TIME  TEMP    WIND        PRES    WAVE   SWELL
                       AIR SEA DIR/SP/G            HT/PER HT/PER/DIR
                 (UTC) (F)     (DEG/KT/KT) (MB)    (FT/S) (FT/S/D)
UPR LAKE MARION  NOT AVBL
WINYAH BAY       0145   58     190/  5     1016.0F
LAKE MURRAY      0200   58     160/ 15/ 19 1012.5F
ACE BASIN NERRS  NOT AVBL
FORT PULASKI     0200   59 53  190/  7/ 13 1017.0F
SAPELO ISLAND    0200   60     170/ 14     1016.0F

$$

ANZ835-935-AMZ111-154-330-350-352-354-370-450-454-472-020300-
...C-MAN AND BUOY OBSERVATIONS...

STATION/POSITION TIME  TEMP    WIND        PRES    WAVE   SWELL
                       AIR SEA DIR/SP/G            HT/PER HT/PER/DIR
                 (UTC) (F)     (DEG/KT/KT) (MB)    (FT/S) (FT/S/D)
BUOY 41004       0150   69 71  170/ 25/ 29 1016.1F   7/ 6   2/11
BUOY 41008       0150   59 54  180/ 14/ 16 1016.7F   3/11   2/ 60/11
FOLLY BEACH CMAN 0200   57     200/  7/  8 1017.2F
CAPERS NEARSHORE 0100   57     210/ 10/ 10   N/A
FRIPP NEARSHORE  0100   57     190/  8/  8 1017.1F


STATION/POSITION TIME  TEMP    WIND        PRES    WAVE   SWELL
                       AIR SEA DIR/SP/G            HT/PER HT/PER/DIR
                 (UTC) (F)     (DEG/KT/KT) (MB)    (FT/S) (FT/S/D)
5E ST. MARYS GA  0121      57                N/A     3/ 5   2/100/11
FRYING PAN BUOY  0150   65 62  190/ 19/ 23 1018.6F   5/ 5   2/100/11
BUOY 41025       0150   63 71  240/ 16/ 19 1018.4F   5/10   3/ 70/10
CAPE LOOKOUT NC  0200   55     150/ 11/ 12 1018.2F
BUOY 41002       0150   64 71  210/ 17/ 21 1022.9F   6/10   5/ 40/10
BUOY 41010       0120   70 74  160/ 17/ 23 1020.5F
ST AUGUSTINE FL  0200   63     180/ 16/ 17 1018.4F


$$


USA.gov is the U.S. government's official web portal to all federal, state and local government web resources and services.